| time (UTC) | temp C | wind direction | speed KPH | gust KPH | rain 1hr cm | rain 24hr cm | rain mn cm | humidity % | barometer mb |
| 20260508033441 | 7 | 121 | 0.0 | 0.0 | 0.00 | 0.36 | 0.36 | 77 | 1009.7 |
| 20260508032938 | 8 | 121 | 0.0 | 0.0 | 0.00 | 0.36 | 0.36 | 76 | 1009.7 |
| 20260508032436 | 8 | 118 | 0.0 | 0.0 | 0.00 | 0.36 | 0.36 | 75 | 1010.0 |
| 20260508031932 | 8 | 118 | 0.0 | 0.0 | 0.00 | 0.36 | 0.36 | 73 | 1009.8 |
| 20260508031430 | 8 | 118 | 0.0 | 0.0 | 0.00 | 0.36 | 0.36 | 75 | 1009.6 |
| 20260508030925 | 7 | 117 | 0.0 | 0.0 | 0.00 | 0.36 | 0.36 | 76 | 1009.7 |
| 20260508030423 | 7 | 110 | 0.0 | 0.0 | 0.00 | 0.36 | 0.36 | 77 | 1009.8 |
| 20260508025919 | 7 | 118 | 0.0 | 0.0 | 0.00 | 0.36 | 0.36 | 78 | 1009.8 |
| 20260508025416 | 7 | 118 | 0.0 | 0.0 | 0.00 | 0.36 | 0.36 | 79 | 1009.8 |
| 20260508024913 | 7 | 121 | 0.0 | 0.0 | 0.00 | 0.36 | 0.36 | 79 | 1009.6 |
| 20260508024410 | 7 | 121 | 0.0 | 0.0 | 0.00 | 0.36 | 0.36 | 79 | 1009.7 |
| 20260508023906 | 7 | 118 | 0.0 | 0.0 | 0.00 | 0.36 | 0.36 | 79 | 1009.8 |
| 20260508023403 | 7 | 118 | 0.0 | 0.0 | 0.00 | 0.36 | 0.36 | 79 | 1009.9 |
| 20260508022900 | 7 | 120 | 0.0 | 0.0 | 0.00 | 0.36 | 0.36 | 79 | 1009.8 |
| 20260508022355 | 7 | 122 | 0.0 | 0.0 | 0.00 | 0.36 | 0.36 | 79 | 1009.7 |
| 20260508021853 | 7 | 121 | 0.0 | 0.0 | 0.00 | 0.36 | 0.36 | 78 | 1009.8 |
| 20260508021349 | 7 | 118 | 0.0 | 0.0 | 0.00 | 0.36 | 0.36 | 77 | 1009.6 |
| 20260508020845 | 7 | 118 | 0.0 | 0.0 | 0.00 | 0.36 | 0.36 | 76 | 1009.7 |
| 20260508020343 | 7 | 117 | 0.0 | 0.0 | 0.00 | 0.36 | 0.36 | 75 | 1009.5 |
| 20260508015840 | 7 | 118 | 0.0 | 0.0 | 0.00 | 0.36 | 0.36 | 74 | 1009.7 |
| 20260508015337 | 8 | 117 | 0.0 | 0.0 | 0.00 | 0.36 | 0.36 | 73 | 1009.6 |
| 20260508014834 | 8 | 118 | 0.0 | 0.0 | 0.00 | 0.36 | 0.36 | 72 | 1009.7 |
| 20260508014331 | 8 | 116 | 0.0 | 0.0 | 0.00 | 0.36 | 0.36 | 71 | 1009.6 |
| 20260508013832 | 8 | 117 | 0.0 | 0.0 | 0.00 | 0.36 | 0.36 | 71 | 1009.5 |
| 20260508013328 | 8 | 118 | 0.0 | 0.0 | 0.00 | 0.36 | 0.36 | 70 | 1009.5 |
| 20260508012826 | 8 | 118 | 0.0 | 0.0 | 0.00 | 0.36 | 0.36 | 69 | 1009.5 |
| 20260508012323 | 9 | 118 | 0.0 | 0.0 | 0.00 | 0.36 | 0.36 | 68 | 1009.4 |
| 20260508011821 | 9 | 117 | 0.0 | 0.0 | 0.00 | 0.36 | 0.36 | 67 | 1009.5 |
| 20260508011318 | 10 | 118 | 0.0 | 0.0 | 0.00 | 0.36 | 0.36 | 66 | 1009.6 |
| 20260508010815 | 10 | 116 | 0.0 | 0.0 | 0.00 | 0.36 | 0.36 | 64 | 1009.4 |
| 20260508010313 | 10 | 116 | 0.0 | 0.0 | 0.00 | 0.36 | 0.36 | 63 | 1009.6 |
| 20260508005809 | 10 | 116 | 0.0 | 0.0 | 0.00 | 0.36 | 0.36 | 61 | 1009.6 |
| 20260508005306 | 10 | 118 | 0.0 | 0.0 | 0.00 | 0.36 | 0.36 | 59 | 1009.3 |
| 20260508004802 | 11 | 116 | 0.0 | 0.0 | 0.00 | 0.36 | 0.36 | 59 | 1009.1 |
| 20260508004258 | 11 | 113 | 0.0 | 0.0 | 0.00 | 0.36 | 0.36 | 57 | 1009.1 |
| 20260508003755 | 11 | 116 | 0.0 | 0.0 | 0.00 | 0.36 | 0.36 | 54 | 1008.9 |
| 20260508003253 | 11 | 117 | 0.0 | 0.0 | 0.00 | 0.36 | 0.36 | 53 | 1008.9 |
| 20260508002749 | 12 | 111 | 0.0 | 0.0 | 0.00 | 0.36 | 0.36 | 51 | 1008.8 |
| 20260508002246 | 12 | 118 | 0.0 | 0.0 | 0.00 | 0.36 | 0.36 | 49 | 1008.9 |
| 20260508001742 | 12 | 116 | 0.0 | 0.0 | 0.00 | 0.36 | 0.36 | 47 | 1008.8 |
| 20260508001238 | 12 | 119 | 0.0 | 0.0 | 0.00 | 0.36 | 0.36 | 46 | 1008.8 |
| 20260508000734 | 13 | 113 | 0.0 | 0.0 | 0.00 | 0.36 | 0.36 | 45 | 1008.6 |
| 20260508000234 | 13 | 115 | 0.0 | 0.0 | 0.00 | 0.36 | 0.36 | 45 | 1008.5 |
| 20260507235728 | 13 | 119 | 0.0 | 0.0 | 0.00 | 0.36 | 0.36 | 43 | 1008.6 |
| 20260507235225 | 13 | 114 | 0.0 | 0.0 | 0.00 | 0.36 | 0.36 | 43 | 1008.8 |
| 20260507234722 | 13 | 123 | 0.0 | 1.6 | 0.00 | 0.36 | 0.36 | 42 | 1008.7 |
| 20260507234219 | 14 | 94 | 1.6 | 1.6 | 0.00 | 0.36 | 0.36 | 41 | 1008.6 |
| 20260507233715 | 14 | 71 | 1.6 | 1.6 | 0.00 | 0.36 | 0.36 | 41 | 1008.3 |
| 20260507233214 | 14 | 107 | 1.6 | 1.6 | 0.00 | 0.36 | 0.36 | 41 | 1008.7 |
| 20260507232710 | 15 | 114 | 1.6 | 1.6 | 0.00 | 0.36 | 0.36 | 40 | 1008.3 |
| 20260507232208 | 15 | 339 | 1.6 | 3.2 | 0.00 | 0.36 | 0.36 | 40 | 1008.3 |
| 20260507231704 | 15 | 54 | 0.0 | 1.6 | 0.00 | 0.36 | 0.36 | 39 | 1008.2 |
| 20260507231201 | 15 | 102 | 0.0 | 0.0 | 0.00 | 0.36 | 0.36 | 40 | 1008.2 |
| 20260507230658 | 15 | 348 | 3.2 | 4.8 | 0.00 | 0.36 | 0.36 | 39 | 1008.2 |
| 20260507230155 | 15 | 115 | 0.0 | 1.6 | 0.00 | 0.36 | 0.36 | 39 | 1008.4 |
| 20260507225654 | 15 | 100 | 0.0 | 0.0 | 0.00 | 0.36 | 0.36 | 39 | 1008.3 |
| 20260507225151 | 15 | 117 | 0.0 | 0.0 | 0.00 | 0.36 | 0.36 | 39 | 1008.2 |
| 20260507224647 | 15 | 108 | 0.0 | 1.6 | 0.00 | 0.36 | 0.36 | 39 | 1008.2 |
| 20260507224144 | 15 | 118 | 0.0 | 0.0 | 0.00 | 0.36 | 0.36 | 40 | 1008.2 |
| 20260507223640 | 15 | 37 | 3.2 | 4.8 | 0.00 | 0.36 | 0.36 | 39 | 1008.4 |
| 20260507223137 | 15 | 107 | 1.6 | 1.6 | 0.00 | 0.36 | 0.36 | 38 | 1008.1 |
| 20260507222634 | 15 | 100 | 0.0 | 1.6 | 0.00 | 0.36 | 0.36 | 36 | 1008.2 |
| 20260507222130 | 15 | 120 | 3.2 | 3.2 | 0.00 | 0.36 | 0.36 | 38 | 1008.2 |
| 20260507221626 | 15 | 86 | 4.8 | 4.8 | 0.00 | 0.36 | 0.36 | 37 | 1008.1 |
| 20260507221123 | 15 | 124 | 1.6 | 1.6 | 0.00 | 0.36 | 0.36 | 37 | 1008.3 |
| 20260507220620 | 15 | 87 | 1.6 | 1.6 | 0.00 | 0.36 | 0.36 | 39 | 1008.4 |
| 20260507220118 | 15 | 96 | 0.0 | 0.0 | 0.00 | 0.36 | 0.36 | 40 | 1008.1 |
| 20260507215614 | 16 | 110 | 0.0 | 0.0 | 0.00 | 0.36 | 0.36 | 41 | 1008.2 |
| 20260507215112 | 16 | 131 | 0.0 | 0.0 | 0.00 | 0.36 | 0.36 | 39 | 1008.0 |
| 20260507214609 | 15 | 106 | 0.0 | 0.0 | 0.00 | 0.36 | 0.36 | 40 | 1008.3 |
| 20260507214105 | 16 | 130 | 0.0 | 0.0 | 0.00 | 0.36 | 0.36 | 39 | 1008.1 |
| 20260507213601 | 16 | 21 | 3.2 | 3.2 | 0.00 | 0.36 | 0.36 | 37 | 1008.2 |
| 20260507213058 | 16 | 88 | 8.0 | 11.3 | 0.00 | 0.36 | 0.36 | 36 | 1008.1 |
| 20260507212554 | 16 | 64 | 1.6 | 3.2 | 0.00 | 0.36 | 0.36 | 37 | 1008.0 |
| 20260507212051 | 16 | 125 | 3.2 | 8.0 | 0.00 | 0.36 | 0.36 | 36 | 1007.9 |
| 20260507211548 | 16 | 126 | 0.0 | 0.0 | 0.00 | 0.36 | 0.36 | 38 | 1008.3 |
| 20260507211044 | 16 | 111 | 0.0 | 0.0 | 0.00 | 0.36 | 0.36 | 39 | 1008.0 |
| 20260507210541 | 16 | 90 | 1.6 | 1.6 | 0.00 | 0.36 | 0.36 | 38 | 1007.8 |
| 20260507210038 | 17 | 52 | 0.0 | 1.6 | 0.00 | 0.36 | 0.36 | 38 | 1007.9 |
| 20260507205535 | 16 | 51 | 3.2 | 3.2 | 0.00 | 0.36 | 0.36 | 39 | 1008.0 |
| 20260507205031 | 17 | 21 | 11.3 | 17.7 | 0.00 | 0.36 | 0.36 | 37 | 1007.8 |
| 20260507204527 | 17 | 85 | 3.2 | 4.8 | 0.00 | 0.36 | 0.36 | 37 | 1007.8 |
| 20260507204025 | 17 | 108 | 0.0 | 1.6 | 0.00 | 0.36 | 0.36 | 38 | 1008.1 |
| 20260507203523 | 17 | 132 | 1.6 | 1.6 | 0.00 | 0.36 | 0.36 | 37 | 1008.0 |
| 20260507203020 | 16 | 33 | 6.4 | 8.0 | 0.00 | 0.36 | 0.36 | 38 | 1007.9 |
| 20260507202515 | 16 | 27 | 1.6 | 3.2 | 0.00 | 0.36 | 0.36 | 37 | 1007.7 |
| 20260507202012 | 16 | 124 | 0.0 | 0.0 | 0.00 | 0.36 | 0.36 | 40 | 1007.7 |
| 20260507201508 | 16 | 206 | 4.8 | 8.0 | 0.00 | 0.36 | 0.36 | 38 | 1007.7 |
| 20260507201004 | 16 | 63 | 3.2 | 4.8 | 0.00 | 0.36 | 0.36 | 38 | 1007.8 |
| 20260507200459 | 16 | 12 | 1.6 | 4.8 | 0.00 | 0.36 | 0.36 | 39 | 1008.0 |
| 20260507195955 | 17 | 77 | 1.6 | 3.2 | 0.00 | 0.36 | 0.36 | 37 | 1008.0 |
| 20260507195453 | 17 | 108 | 4.8 | 9.7 | 0.00 | 0.36 | 0.36 | 37 | 1008.0 |
| 20260507194950 | 16 | 66 | 1.6 | 1.6 | 0.00 | 0.36 | 0.36 | 38 | 1008.1 |
| 20260507194447 | 16 | 66 | 0.0 | 1.6 | 0.00 | 0.36 | 0.36 | 39 | 1008.1 |
| 20260507193943 | 16 | 143 | 3.2 | 3.2 | 0.00 | 0.36 | 0.36 | 38 | 1008.2 |
| 20260507193440 | 16 | 119 | 0.0 | 0.0 | 0.00 | 0.36 | 0.36 | 37 | 1008.3 |
| 20260507192937 | 16 | 23 | 6.4 | 9.7 | 0.00 | 0.36 | 0.36 | 38 | 1008.1 |
| 20260507192433 | 17 | 84 | 1.6 | 3.2 | 0.00 | 0.36 | 0.36 | 37 | 1008.2 |
| 20260507191930 | 16 | 128 | 0.0 | 1.6 | 0.00 | 0.36 | 0.36 | 39 | 1008.3 |
| 20260507191426 | 17 | 68 | 3.2 | 4.8 | 0.00 | 0.36 | 0.36 | 38 | 1008.5 |
| 20260507190922 | 16 | 110 | 3.2 | 3.2 | 0.00 | 0.36 | 0.36 | 39 | 1008.4 |
| 20260507190420 | 16 | 156 | 1.6 | 3.2 | 0.00 | 0.36 | 0.36 | 38 | 1008.5 |
| 20260507185919 | 16 | 31 | 8.0 | 9.7 | 0.00 | 0.36 | 0.36 | 39 | 1008.6 |
| 20260507185416 | 16 | 42 | 1.6 | 1.6 | 0.00 | 0.36 | 0.36 | 38 | 1008.4 |
| 20260507184913 | 16 | 126 | 0.0 | 0.0 | 0.00 | 0.36 | 0.36 | 37 | 1008.5 |
| 20260507184411 | 16 | 110 | 0.0 | 0.0 | 0.00 | 0.36 | 0.36 | 38 | 1008.5 |
| 20260507183908 | 16 | 130 | 1.6 | 1.6 | 0.00 | 0.36 | 0.36 | 40 | 1008.9 |
| 20260507183405 | 16 | 69 | 1.6 | 1.6 | 0.00 | 0.36 | 0.36 | 40 | 1008.9 |
| 20260507182902 | 16 | 120 | 0.0 | 1.6 | 0.00 | 0.36 | 0.36 | 39 | 1008.8 |
| 20260507182357 | 16 | 127 | 0.0 | 0.0 | 0.00 | 0.36 | 0.36 | 39 | 1008.7 |
| 20260507181854 | 16 | 110 | 0.0 | 1.6 | 0.00 | 0.36 | 0.36 | 41 | 1008.9 |
| 20260507181350 | 16 | 131 | 1.6 | 1.6 | 0.00 | 0.36 | 0.36 | 40 | 1008.9 |
| 20260507180847 | 16 | 23 | 1.6 | 3.2 | 0.00 | 0.36 | 0.36 | 39 | 1009.1 |
| 20260507180344 | 16 | 199 | 3.2 | 3.2 | 0.00 | 0.36 | 0.36 | 40 | 1008.8 |
| 20260507175840 | 16 | 98 | 4.8 | 8.0 | 0.00 | 0.36 | 0.36 | 37 | 1009.2 |
| 20260507175337 | 16 | 119 | 0.0 | 1.6 | 0.00 | 0.36 | 0.36 | 38 | 1009.1 |
| 20260507174834 | 16 | 101 | 1.6 | 1.6 | 0.00 | 0.36 | 0.36 | 44 | 1009.3 |
| 20260507174332 | 16 | 106 | 0.0 | 0.0 | 0.00 | 0.36 | 0.36 | 42 | 1009.6 |
| 20260507173829 | 16 | 104 | 1.6 | 4.8 | 0.00 | 0.36 | 0.36 | 37 | 1009.6 |
| 20260507173326 | 15 | 76 | 1.6 | 1.6 | 0.00 | 0.36 | 0.36 | 39 | 1009.6 |
| 20260507172822 | 15 | 109 | 0.0 | 0.0 | 0.00 | 0.36 | 0.36 | 40 | 1009.6 |
| 20260507172319 | 15 | 227 | 4.8 | 8.0 | 0.00 | 0.36 | 0.36 | 42 | 1009.5 |
| 20260507171815 | 15 | 130 | 0.0 | 0.0 | 0.00 | 0.36 | 0.36 | 43 | 1009.6 |
| 20260507171312 | 15 | 158 | 4.8 | 8.0 | 0.00 | 0.36 | 0.36 | 41 | 1009.7 |
| 20260507170809 | 15 | 146 | 3.2 | 3.2 | 0.00 | 0.36 | 0.36 | 40 | 1010.0 |
| 20260507170305 | 15 | 124 | 0.0 | 0.0 | 0.00 | 0.36 | 0.36 | 41 | 1010.1 |
| 20260507165801 | 15 | 117 | 0.0 | 0.0 | 0.00 | 0.36 | 0.36 | 41 | 1010.1 |
| 20260507165258 | 15 | 128 | 0.0 | 0.0 | 0.00 | 0.36 | 0.36 | 42 | 1010.0 |
| 20260507164754 | 15 | 47 | 1.6 | 3.2 | 0.00 | 0.36 | 0.36 | 41 | 1010.2 |
| 20260507164251 | 15 | 107 | 3.2 | 3.2 | 0.00 | 0.36 | 0.36 | 41 | 1010.1 |
| 20260507163748 | 14 | 101 | 0.0 | 1.6 | 0.00 | 0.36 | 0.36 | 46 | 1010.1 |
| 20260507163246 | 15 | 36 | 6.4 | 12.9 | 0.00 | 0.36 | 0.36 | 40 | 1010.3 |
| 20260507162741 | 15 | 165 | 1.6 | 3.2 | 0.00 | 0.36 | 0.36 | 42 | 1010.5 |
| 20260507162237 | 15 | 143 | 1.6 | 1.6 | 0.00 | 0.36 | 0.36 | 43 | 1010.5 |
| 20260507161735 | 15 | 91 | 0.0 | 1.6 | 0.00 | 0.36 | 0.36 | 41 | 1010.4 |
| 20260507161231 | 15 | 53 | 1.6 | 8.0 | 0.00 | 0.36 | 0.36 | 40 | 1010.4 |
| 20260507160727 | 15 | 110 | 1.6 | 1.6 | 0.00 | 0.36 | 0.36 | 43 | 1010.4 |
| 20260507160223 | 13 | 126 | 0.0 | 0.0 | 0.00 | 0.36 | 0.36 | 39 | 1010.8 |
| 20260507155720 | 13 | 22 | 3.2 | 3.2 | 0.00 | 0.36 | 0.36 | 42 | 1010.8 |
| 20260507155216 | 14 | 33 | 1.6 | 3.2 | 0.00 | 0.36 | 0.36 | 42 | 1010.7 |
| 20260507154712 | 13 | 69 | 0.0 | 1.6 | 0.00 | 0.36 | 0.36 | 40 | 1010.8 |
| 20260507154210 | 13 | 35 | 0.0 | 1.6 | 0.00 | 0.36 | 0.36 | 45 | 1010.7 |
| 20260507153707 | 13 | 36 | 4.8 | 4.8 | 0.00 | 0.36 | 0.36 | 43 | 1011.0 |
| 20260507153203 | 14 | 110 | 1.6 | 1.6 | 0.00 | 0.36 | 0.36 | 40 | 1011.1 |
| 20260507152659 | 14 | 82 | 0.0 | 1.6 | 0.00 | 0.36 | 0.36 | 41 | 1011.0 |
| 20260507152155 | 13 | 27 | 3.2 | 4.8 | 0.00 | 0.36 | 0.36 | 40 | 1011.0 |
| 20260507151652 | 13 | 7 | 6.4 | 11.3 | 0.00 | 0.36 | 0.36 | 44 | 1011.1 |
| 20260507151148 | 13 | 71 | 1.6 | 1.6 | 0.00 | 0.36 | 0.36 | 43 | 1011.3 |
| 20260507150646 | 13 | 88 | 3.2 | 4.8 | 0.00 | 0.36 | 0.36 | 48 | 1011.2 |
| 20260507150142 | 13 | 93 | 1.6 | 1.6 | 0.00 | 0.36 | 0.36 | 44 | 1011.2 |
| 20260507145637 | 13 | 102 | 0.0 | 0.0 | 0.00 | 0.36 | 0.36 | 49 | 1011.2 |
| 20260507145135 | 13 | 53 | 1.6 | 3.2 | 0.00 | 0.36 | 0.36 | 48 | 1011.1 |
| 20260507144631 | 13 | 83 | 3.2 | 4.8 | 0.00 | 0.36 | 0.36 | 47 | 1010.9 |
| 20260507144130 | 12 | 110 | 3.2 | 8.0 | 0.00 | 0.36 | 0.36 | 46 | 1011.0 |
| 20260507143626 | 13 | 118 | 0.0 | 1.6 | 0.00 | 0.36 | 0.36 | 50 | 1011.1 |
| 20260507143123 | 12 | 12 | 4.8 | 8.0 | 0.00 | 0.36 | 0.36 | 49 | 1011.1 |
| 20260507142619 | 12 | 40 | 0.0 | 1.6 | 0.13 | 0.36 | 0.36 | 52 | 1011.5 |
| 20260507142116 | 12 | 30 | 0.0 | 1.6 | 0.00 | 0.33 | 0.33 | 54 | 1011.2 |
| 20260507141612 | 13 | 48 | 3.2 | 3.2 | 0.00 | 0.33 | 0.33 | 57 | 1011.3 |
| 20260507141109 | 12 | 291 | 1.6 | 1.6 | 0.00 | 0.33 | 0.33 | 61 | 1011.3 |
| 20260507140605 | 12 | 164 | 1.6 | 1.6 | 0.00 | 0.33 | 0.33 | 60 | 1011.2 |
| 20260507135600 | 12 | 57 | 0.0 | 1.6 | 0.00 | 0.33 | 0.33 | 67 | 1011.2 |
| 20260507135057 | 11 | 111 | 0.0 | 1.6 | 0.00 | 0.33 | 0.33 | 65 | 1011.2 |
| 20260507134553 | 11 | 32 | 3.2 | 4.8 | 0.00 | 0.33 | 0.33 | 67 | 1011.0 |
| 20260507134049 | 11 | 70 | 6.4 | 8.0 | 0.00 | 0.33 | 0.33 | 72 | 1011.3 |
| 20260507133546 | 11 | 75 | 0.0 | 0.0 | 0.00 | 0.33 | 0.33 | 75 | 1011.1 |
| 20260507133044 | 11 | 90 | 0.0 | 0.0 | 0.00 | 0.33 | 0.33 | 78 | 1011.3 |
| 20260507132540 | 11 | 35 | 1.6 | 1.6 | 0.00 | 0.33 | 0.33 | 81 | 1011.2 |
| 20260507132036 | 10 | 15 | 4.8 | 4.8 | 0.00 | 0.33 | 0.33 | 83 | 1011.1 |
| 20260507131533 | 10 | 103 | 0.0 | 0.0 | 0.00 | 0.33 | 0.33 | 84 | 1010.9 |
| 20260507131031 | 10 | 109 | 1.6 | 1.6 | 0.00 | 0.33 | 0.33 | 87 | 1011.0 |
| 20260507130527 | 10 | 118 | 0.0 | 0.0 | 0.00 | 0.33 | 0.33 | 86 | 1011.3 |
| 20260507130026 | 10 | 100 | 0.0 | 1.6 | 0.00 | 0.33 | 0.33 | 85 | 1011.1 |
| 20260507125524 | 10 | 95 | 1.6 | 1.6 | 0.00 | 0.33 | 0.33 | 85 | 1011.0 |
| 20260507125021 | 10 | 352 | 4.8 | 8.0 | 0.00 | 0.33 | 0.33 | 85 | 1011.1 |
| 20260507124517 | 10 | 105 | 0.0 | 0.0 | 0.00 | 0.33 | 0.33 | 86 | 1011.1 |
| 20260507124016 | 10 | 92 | 1.6 | 1.6 | 0.00 | 0.33 | 0.33 | 87 | 1011.0 |
| 20260507123513 | 10 | 167 | 1.6 | 1.6 | 0.00 | 0.33 | 0.33 | 89 | 1011.1 |
| 20260507123010 | 10 | 112 | 0.0 | 0.0 | 0.00 | 0.33 | 0.33 | 90 | 1011.0 |
| 20260507122504 | 10 | 65 | 1.6 | 1.6 | 0.00 | 0.33 | 0.33 | 90 | 1010.8 |
| 20260507122001 | 10 | 117 | 0.0 | 0.0 | 0.00 | 0.33 | 0.33 | 91 | 1011.1 |
| 20260507121456 | 9 | 115 | 0.0 | 0.0 | 0.00 | 0.33 | 0.33 | 91 | 1010.9 |
| 20260507120953 | 9 | 34 | 0.0 | 1.6 | 0.00 | 0.33 | 0.33 | 92 | 1011.0 |
| 20260507120449 | 9 | 96 | 3.2 | 3.2 | 0.00 | 0.33 | 0.33 | 92 | 1010.9 |
| 20260507115946 | 8 | 16 | 4.8 | 8.0 | 0.00 | 0.33 | 0.33 | 93 | 1010.9 |
| 20260507115442 | 8 | 51 | 3.2 | 3.2 | 0.00 | 0.33 | 0.33 | 94 | 1011.0 |
| 20260507114938 | 8 | 110 | 0.0 | 0.0 | 0.00 | 0.33 | 0.33 | 94 | 1010.9 |
| 20260507114434 | 8 | 106 | 1.6 | 1.6 | 0.00 | 0.33 | 0.33 | 95 | 1010.9 |
| 20260507113932 | 8 | 114 | 0.0 | 0.0 | 0.00 | 0.33 | 0.33 | 96 | 1011.1 |
| 20260507113429 | 8 | 89 | 0.0 | 0.0 | 0.00 | 0.33 | 0.33 | 96 | 1010.7 |
| 20260507112926 | 8 | 115 | 0.0 | 0.0 | 0.00 | 0.33 | 0.33 | 96 | 1010.9 |
| 20260507112424 | 8 | 112 | 1.6 | 1.6 | 0.00 | 0.33 | 0.33 | 96 | 1010.6 |
| 20260507111921 | 8 | 116 | 0.0 | 0.0 | 0.00 | 0.33 | 0.33 | 96 | 1010.9 |
| 20260507111418 | 8 | 119 | 0.0 | 0.0 | 0.00 | 0.33 | 0.33 | 96 | 1010.5 |
| 20260507110914 | 8 | 115 | 0.0 | 0.0 | 0.00 | 0.33 | 0.33 | 96 | 1010.7 |
| 20260507110410 | 8 | 120 | 0.0 | 0.0 | 0.00 | 0.33 | 0.33 | 97 | 1010.4 |
| 20260507105907 | 8 | 121 | 0.0 | 0.0 | 0.00 | 0.33 | 0.33 | 97 | 1010.5 |
| 20260507105358 | 8 | 122 | 0.0 | 1.6 | 0.00 | 0.33 | 0.33 | 97 | 1010.5 |
| 20260507104855 | 8 | 118 | 0.0 | 0.0 | 0.00 | 0.33 | 0.33 | 97 | 1010.2 |
| 20260507104351 | 8 | 120 | 0.0 | 0.0 | 0.00 | 0.33 | 0.33 | 97 | 1010.3 |
| 20260507103847 | 8 | 120 | 0.0 | 0.0 | 0.00 | 0.33 | 0.33 | 97 | 1010.3 |
| 20260507103344 | 8 | 119 | 0.0 | 0.0 | 0.00 | 0.33 | 0.33 | 97 | 1009.9 |
| 20260507102840 | 8 | 117 | 0.0 | 0.0 | 0.00 | 0.33 | 0.33 | 97 | 1009.7 |
| 20260507102337 | 8 | 117 | 0.0 | 0.0 | 0.00 | 0.33 | 0.33 | 98 | 1009.7 |
| 20260507101833 | 8 | 117 | 0.0 | 0.0 | 0.00 | 0.33 | 0.33 | 98 | 1009.7 |
| 20260507101333 | 8 | 29 | 1.6 | 3.2 | 0.00 | 0.33 | 0.33 | 98 | 1009.6 |
| 20260507100831 | 8 | 116 | 0.0 | 0.0 | 0.00 | 0.33 | 0.33 | 98 | 1009.5 |
| 20260507100329 | 8 | 121 | 0.0 | 0.0 | 0.00 | 0.33 | 0.33 | 98 | 1009.6 |
| 20260507095827 | 8 | 120 | 0.0 | 0.0 | 0.00 | 0.33 | 0.33 | 98 | 1009.5 |
| 20260507095323 | 8 | 124 | 0.0 | 0.0 | 0.00 | 0.33 | 0.33 | 99 | 1009.7 |
| 20260507094820 | 8 | 121 | 0.0 | 0.0 | 0.00 | 0.33 | 0.33 | 99 | 1009.8 |
| 20260507094317 | 8 | 111 | 0.0 | 0.0 | 0.00 | 0.33 | 0.33 | 99 | 1009.6 |
| 20260507093814 | 8 | 33 | 0.0 | 0.0 | 0.00 | 0.33 | 0.33 | 99 | 1009.4 |
| 20260507093312 | 8 | 99 | 1.6 | 1.6 | 0.00 | 0.33 | 0.33 | 99 | 1009.5 |
| 20260507092810 | 8 | 118 | 0.0 | 1.6 | 0.00 | 0.33 | 0.33 | 99 | 1009.6 |
| 20260507092307 | 8 | 110 | 0.0 | 0.0 | 0.00 | 0.33 | 0.33 | 99 | 1009.6 |
| 20260507091803 | 8 | 95 | 0.0 | 0.0 | 0.00 | 0.33 | 0.33 | 99 | 1009.3 |
| 20260507091259 | 8 | 119 | 0.0 | 0.0 | 0.00 | 0.33 | 0.33 | 99 | 1009.5 |
| 20260507090759 | 8 | 121 | 0.0 | 0.0 | 0.00 | 0.33 | 0.33 | 99 | 1009.6 |
| 20260507090256 | 8 | 94 | 0.0 | 0.0 | 0.00 | 0.33 | 0.33 | 99 | 1009.5 |
| 20260507085753 | 8 | 121 | 0.0 | 0.0 | 0.00 | 0.33 | 0.33 | 99 | 1009.4 |
| 20260507085250 | 8 | 117 | 0.0 | 0.0 | 0.00 | 0.33 | 0.33 | 99 | 1009.6 |
| 20260507084747 | 8 | 114 | 0.0 | 1.6 | 0.00 | 0.33 | 0.33 | 99 | 1009.6 |
| 20260507084243 | 8 | 87 | 1.6 | 3.2 | 0.00 | 0.33 | 0.33 | 99 | 1009.5 |
| 20260507083741 | 9 | 121 | 0.0 | 0.0 | 0.00 | 0.33 | 0.33 | 99 | 1009.5 |
| 20260507083238 | 9 | 125 | 0.0 | 0.0 | 0.00 | 0.33 | 0.33 | 99 | 1009.6 |
| 20260507082734 | 9 | 122 | 0.0 | 0.0 | 0.00 | 0.33 | 0.33 | 99 | 1009.5 |
| 20260507082229 | 9 | 117 | 0.0 | 0.0 | 0.00 | 0.33 | 0.33 | 99 | 1009.9 |
| 20260507081727 | 9 | 127 | 0.0 | 0.0 | 0.00 | 0.33 | 0.33 | 99 | 1009.4 |
| 20260507081222 | 9 | 92 | 0.0 | 0.0 | 0.00 | 0.33 | 0.33 | 99 | 1009.2 |
| 20260507080719 | 9 | 130 | 0.0 | 0.0 | 0.00 | 0.33 | 0.33 | 99 | 1010.0 |
| 20260507080215 | 9 | 122 | 0.0 | 0.0 | 0.00 | 0.33 | 0.33 | 99 | 1009.7 |
| 20260507075711 | 9 | 101 | 0.0 | 1.6 | 0.00 | 0.33 | 0.33 | 99 | 1009.6 |
| 20260507075208 | 10 | 96 | 0.0 | 0.0 | 0.18 | 0.33 | 0.33 | 99 | 1009.8 |
| 20260507074704 | 10 | 127 | 0.0 | 0.0 | 0.18 | 0.33 | 0.33 | 99 | 1009.6 |
| 20260507074202 | 10 | 123 | 0.0 | 0.0 | 0.00 | 0.30 | 0.30 | 99 | 1009.7 |
| 20260507073658 | 10 | 120 | 0.0 | 0.0 | 0.00 | 0.30 | 0.30 | 99 | 1010.0 |
| 20260507073154 | 10 | 134 | 0.0 | 0.0 | 0.13 | 0.30 | 0.30 | 99 | 1010.1 |
| 20260507072653 | 10 | 123 | 0.0 | 0.0 | 0.13 | 0.30 | 0.30 | 99 | 1009.7 |
| 20260507072150 | 10 | 125 | 0.0 | 0.0 | 0.18 | 0.28 | 0.28 | 99 | 1009.6 |
| 20260507071648 | 10 | 124 | 0.0 | 0.0 | 0.30 | 0.28 | 0.28 | 99 | 1009.7 |
| 20260507071143 | 10 | 125 | 0.0 | 0.0 | 0.30 | 0.25 | 0.25 | 99 | 1009.4 |
| 20260507070641 | 10 | 89 | 0.0 | 0.0 | 0.30 | 0.23 | 0.23 | 98 | 1009.6 |
| 20260507070137 | 10 | 110 | 0.0 | 0.0 | 0.30 | 0.20 | 0.20 | 98 | 1009.4 |
| 20260507065634 | 10 | 112 | 0.0 | 1.6 | 0.18 | 0.18 | 0.18 | 98 | 1009.6 |
| 20260507065131 | 10 | 94 | 0.0 | 0.0 | 0.00 | 0.15 | 0.15 | 98 | 1009.5 |
| 20260507064628 | 10 | 83 | 0.0 | 0.0 | 0.00 | 0.15 | 0.15 | 98 | 1009.8 |
| 20260507064127 | 10 | 116 | 0.0 | 0.0 | 0.18 | 0.15 | 0.15 | 98 | 1009.3 |
| 20260507063624 | 10 | 60 | 1.6 | 3.2 | 0.30 | 0.15 | 0.15 | 97 | 1009.1 |
| 20260507063121 | 10 | 118 | 0.0 | 0.0 | 0.13 | 0.13 | 0.13 | 97 | 1009.5 |
| 20260507062617 | 10 | 117 | 0.0 | 0.0 | 0.00 | 0.10 | 0.10 | 96 | 1009.6 |
| 20260507062115 | 10 | 120 | 0.0 | 0.0 | 0.18 | 0.10 | 0.10 | 96 | 1009.7 |
| 20260507061613 | 10 | 120 | 0.0 | 0.0 | 0.30 | 0.10 | 0.10 | 95 | 1009.1 |
| 20260507061111 | 11 | 107 | 0.0 | 1.6 | 0.13 | 0.08 | 0.08 | 94 | 1009.2 |
| 20260507060609 | 11 | 121 | 0.0 | 0.0 | 0.18 | 0.05 | 0.05 | 93 | 1009.3 |
| 20260507060105 | 11 | 128 | 0.0 | 0.0 | 0.13 | 0.03 | 0.03 | 91 | 1009.3 |
| 20260507055600 | 11 | 123 | 0.0 | 0.0 | 0.00 | 0.00 | 0.00 | 91 | 1009.3 |
| 20260507055056 | 11 | 112 | 1.6 | 1.6 | 0.00 | 0.00 | 0.00 | 90 | 1008.6 |
| 20260507054552 | 11 | 116 | 0.0 | 0.0 | 0.00 | 0.00 | 0.00 | 90 | 1008.5 |
| 20260507054050 | 11 | 83 | 1.6 | 1.6 | 0.00 | 0.00 | 0.00 | 89 | 1008.9 |
| 20260507053548 | 11 | 117 | 0.0 | 0.0 | 0.00 | 0.00 | 0.00 | 88 | 1008.9 |
| 20260507053046 | 11 | 108 | 0.0 | 1.6 | 0.00 | 0.00 | 0.00 | 88 | 1008.7 |
| 20260507052543 | 12 | 130 | 0.0 | 0.0 | 0.00 | 0.00 | 0.00 | 87 | 1008.9 |
| 20260507052040 | 12 | 116 | 0.0 | 1.6 | 0.00 | 0.00 | 0.00 | 87 | 1008.7 |
| 20260507051538 | 12 | 32 | 1.6 | 3.2 | 0.00 | 0.00 | 0.00 | 88 | 1008.5 |
| 20260507051034 | 12 | 117 | 1.6 | 1.6 | 0.00 | 0.00 | 0.00 | 88 | 1008.9 |
| 20260507050531 | 12 | 109 | 0.0 | 1.6 | 0.00 | 0.00 | 0.00 | 88 | 1009.2 |
| 20260507050027 | 12 | 121 | 0.0 | 0.0 | 0.00 | 0.00 | 0.00 | 88 | 1009.2 |
| 20260507045524 | 12 | 118 | 0.0 | 1.6 | 0.00 | 0.00 | 0.00 | 88 | 1009.0 |
| 20260507045021 | 12 | 110 | 1.6 | 1.6 | 0.00 | 0.00 | 0.00 | 88 | 1008.9 |
| 20260507044518 | 12 | 121 | 0.0 | 0.0 | 0.00 | 0.00 | 0.00 | 87 | 1009.3 |
| 20260507044015 | 12 | 114 | 0.0 | 0.0 | 0.00 | 0.00 | 0.00 | 87 | 1009.1 |
| 20260507043511 | 12 | 90 | 0.0 | 1.6 | 0.00 | 0.00 | 0.00 | 87 | 1009.1 |
| 20260507043008 | 12 | 139 | 0.0 | 0.0 | 0.00 | 0.00 | 0.00 | 87 | 1009.1 |
| 20260507042504 | 12 | 56 | 1.6 | 1.6 | 0.00 | 0.00 | 0.00 | 87 | 1009.0 |
| 20260507041959 | 12 | 121 | 0.0 | 0.0 | 0.00 | 0.00 | 0.00 | 86 | 1009.0 |
| 20260507041457 | 12 | 138 | 1.6 | 1.6 | 0.00 | 0.00 | 0.00 | 86 | 1009.1 |
| 20260507040953 | 12 | 75 | 0.0 | 0.0 | 0.00 | 0.00 | 0.00 | 87 | 1009.2 |
| 20260507040449 | 12 | 63 | 1.6 | 1.6 | 0.00 | 0.00 | 0.00 | 87 | 1009.1 |
| 20260507035945 | 12 | 91 | 4.8 | 9.7 | 0.00 | 0.38 | 0.38 | 86 | 1009.1 |
| 20260507035442 | 12 | 185 | 0.0 | 1.6 | 0.00 | 0.38 | 0.38 | 87 | 1009.1 |
| 20260507034939 | 12 | 43 | 0.0 | 3.2 | 0.00 | 0.38 | 0.38 | 87 | 1009.3 |
| 20260507034436 | 13 | 123 | 0.0 | 1.6 | 0.00 | 0.38 | 0.38 | 87 | 1009.0 |
| 20260507033934 | 13 | 82 | 0.0 | 1.6 | 0.00 | 0.38 | 0.38 | 87 | 1008.8 |